EDT,Max TemperatureF,Mean TemperatureF,Min TemperatureF,Max Dew PointF,MeanDew PointF,Min DewpointF,Max Humidity, Mean Humidity, Min Humidity, Max Sea Level PressureIn, Mean Sea Level PressureIn, Min Sea Level PressureIn, Max VisibilityMiles, Mean VisibilityMiles, Min VisibilityMiles, Max Wind SpeedMPH, Mean Wind SpeedMPH, Max Gust SpeedMPH,PrecipitationIn, CloudCover, Events, WindDirDegrees
2012-10-1,66,56,48,52,50,46,93,79,58,29.88,29.69,29.60,10,10,10,12,4,21,0.01,5,,228
2012-10-2,72,60,48,57,53,48,97,78,55,30.06,29.98,29.89,10,10,10,7,2,,0.00,3,,194
2012-10-3,62,60,59,61,58,56,100,93,88,30.20,30.14,30.06,10,7,2,5,1,,0.39,8,Rain,42
2012-10-4,61,58,57,59,58,57,100,97,93,30.20,30.13,30.03,10,6,1,5,0,,0.38,8,Rain,92
2012-10-5,75,65,55,60,57,55,100,88,52,30.02,29.97,29.88,10,8,0,7,1,,0.00,5,Fog-Rain,186
2012-10-6,75,60,44,60,53,40,100,83,59,29.88,29.78,29.65,10,7,1,12,2,26,0.02,2,,238
2012-10-7,55,48,42,45,38,34,93,67,53,30.06,30.00,29.90,10,10,6,8,4,,0.15,2,Rain,265
2012-10-8,57,44,33,44,37,34,100,93,47,30.36,30.19,30.07,10,4,0,8,1,,0.03,3,Fog-Rain,290
2012-10-9,55,44,32,46,38,30,100,91,64,30.38,30.31,30.19,10,6,0,9,1,,0.00,6,Fog-Rain,31
2012-10-10,51,46,42,50,46,40,100,94,71,30.19,29.90,29.67,10,6,1,12,1,24,0.58,8,Rain,296
2012-10-11,55,47,39,39,32,27,86,61,34,30.08,29.95,29.73,10,10,10,18,7,31,0.01,2,,253
2012-10-12,52,40,26,36,29,21,88,57,35,30.33,30.08,29.92,10,10,10,13,7,25,0.00,4,Rain,276
2012-10-13,50,34,21,32,24,19,92,67,33,30.43,30.37,30.31,10,10,10,7,2,,0.00,1,Rain,288
2012-10-14,52,44,37,46,42,33,100,89,73,30.30,30.08,29.94,10,10,4,8,2,,0.07,8,Rain,225
2012-10-15,64,55,46,61,53,46,100,95,78,29.91,29.70,29.57,10,5,0,5,0,,0.48,8,Fog-Rain-Thunderstorm,178
2012-10-16,57,45,32,57,39,30,97,73,52,29.85,29.64,29.53,10,10,10,16,5,25,0.01,4,Rain,265
2012-10-17,62,44,26,39,30,26,100,83,29,30.01,29.93,29.87,10,6,0,5,0,,0.00,2,Fog,271
2012-10-18,66,48,33,43,38,34,100,82,34,30.18,30.09,30.02,10,8,0,12,1,,0.00,3,Fog,120
2012-10-19,57,52,46,56,52,44,100,97,87,30.14,29.99,29.79,10,5,1,10,3,18,1.19,8,Rain,16
2012-10-20,73,64,54,63,57,45,100,91,48,29.78,29.70,29.59,10,6,1,7,1,,0.26,7,Rain,208
2012-10-21,60,50,39,45,39,38,93,62,46,29.81,29.77,29.68,10,10,10,14,6,31,0.00,3,,255
2012-10-22,59,50,42,38,37,35,82,58,46,29.96,29.88,29.81,10,10,10,16,9,28,0.00,1,,277
2012-10-23,62,46,30,41,34,30,100,73,31,30.15,30.06,29.96,10,9,2,7,1,,0.00,0,,15
2012-10-24,62,44,26,35,28,18,96,69,19,30.23,30.18,30.13,10,10,10,4,1,,0.00,2,Rain,175
2012-10-25,61,46,30,42,36,30,100,75,39,30.37,30.29,30.25,10,10,10,7,1,,0.00,1,,145
2012-10-26,66,50,35,50,42,36,100,92,54,30.27,30.21,30.14,10,5,0,6,0,,0.00,4,Fog-Rain,198
2012-10-27,66,52,39,52,46,39,100,89,59,30.14,30.10,30.04,10,4,0,6,0,,0.00,5,Fog,122
2012-10-28,57,50,46,47,44,41,93,75,63,30.09,30.03,29.94,10,10,10,10,4,17,0.00,4,,47
2012-10-29,57,54,50,56,52,46,100,94,86,29.91,29.70,29.51,10,3,1,24,10,37,1.01,8,Rain,46
2012-10-30,64,62,59,61,60,59,100,96,90,29.65,29.62,29.58,10,7,2,12,7,,0.24,8,Rain-Thunderstorm,110
2012-10-31,63,55,48,59,53,43,100,90,62,29.58,29.53,29.49,10,8,2,12,5,16,0.11,8,Rain,134